Probability
0 0 0 0 0 0 0 0 0 0 0 0 0 0 0 0 0 0 0 0 0 0 0 0 0 0 0 0 0 0 0 0 0 0 0 0 0 0 0 0 0 0 0
0 0 0 0 0 0 0 0 0 0 0 0 0 0 0 0 0 0 0 0 0 0 0 0 0 0 0 0 0 0 0 0 0 0 0 0 0 0 0 0 0 0 0
0 0 0 0 0 0 0 0 0 0 0 0 0 0 0 0 0 0 0 0 0 0 0 0 0 0 0 0 0 0 0 0 0 0 0 0 0 0 0 0 0 0 0
0 0 0 0 0 0 0 0 0 0 0 0 0 0 0 0 0 0 0 0 0 0 0 0 0 0 0 0 0 0 0 0 0 0 0 0 0 0 0 0 0 0 0
0 0 0 0 0 0 0 0 0 0 0 0 0 0 0 0 0 0 0 0 0 0 0 0 0 0 0 0 0 0 0 0 0 0 0 0 0 0 0 0 0 0 0
0 0 0 0 0 0 0 0 0 0 0 0 0 0 0 0 0 0 0 0 0 0 0 0 0 0 0 0 0 0 0 0 0 0 0 0 0 0 0 0 0 0 0
0 0 0 0 0 0 0 0 0 0 0 0 0 0 0 0 0 0 0 0 0 0 0 0 0 0 0 0 0 0 0 0 0 0 0 0 0 0 0 0 0 0 0
0 0 0 0 0 0 0 0 0 0 0 0 0 0 0 0 0 0 0 0 0 0 0 0 0 0 0 0 0 0 0 0 0 0 0 0 0 0 0 0 0 0 0
0 0 0 0 0 0 0 0 0 0 0 0 0 0 0 0 0 0 0 0 0 0 0 0 0 0 0 0 0 0 0 0 0 0 0 0 0 0 0 0 0 0 0
0 0 0 0 0 0 0 0 0 0 0 0 0 0 0 0 0 0 0 0 0 0 0 0 0 0 0 0 0 0 0 0 0 0 0 0 0 0 0 0 0 0 0
0 0 0 0 0 0 0 0 0 0 0 0 0 0 0 0 0 0 0 0 0 0 0 0 0 0 0 0 0 0 0 0 0 0 0 0 0 0 0 0 0 0 0
0 0 0 0 0 0 0 0 0 0 0 0 0 0 0 0 0 0 0 0 0 0 0 0 0 0 0 0 0 0 0 0 0 0 0 0 0 0 0 0 0 0 0
0 0 0 0 0 0 0 0 0 0 0 0 0 0 0 0 0 0 0 0 0 0 0 0 0 0 0 0 0 0 0 0 0 0 0 0 0 0 0 0 0 0 0
0 0 0 0 0 0 0 0 0 0 0 0 0 0 0 0 0 0 0 0 0 0 0 0 0 0 0 0 0 0 0 0 0 0 0 0 0 0 0 0 0 0 0
0 0 0 0 0 0 0 0 0 0 0 0 0 0 0 0 0 0 0 0 0 0 0 0 0 0 0 0 0 0 0 0 0 0 0 0 0 0 0 0 0 0 0
0 0 0 0 0 0 0 0 0 0 0 0 0 0 0 0 0 0 0 0 0 0 0 0 0 0 0 0 0 0 0 0 0 0 0 0 0 0 0 0 0 0 0
0 0 0 0 0 0 0 0 0 0 0 0 0 0 0 0 0 0 0 0 0 0 0 0 0 0 0 0 0 0 0 0 0 0 0 0 0 0 0 0 0 0 0
0 0 0 0 0 0 0 0 0 0 0 0 0 0 0 0 0 0 0 0 0 0 0 0 0 0 0 0 0 0 0 0 0 0 0 0 0 0 0 0 0 0 0
0 0 0 0 0 0 0 0 0 0 0 0 0 0 0 0 0 0 0 0 0 0 0 0 0 0 0 0 0 0 0 0 0 0 0 0 0 0 0 0 0 0 0
0 0 0 0 0 0 0 0 0 0 0 0 0 0 0 0 0 0 0 0 0 0 0 0 0 0 0 0 0 0 0 0 0 0 0 0 0 0 0 0 0 0 0
0 0 0 0 0 0 0 0 0 0 0 0 0 0 0 0 0 0 0 0 0 0 0 0 0 0 0 0 0 0 0 0 0 0 0 0 0 0 0 0 0 0 0
0 0 0 0 0 0 0 0 0 0 0 0 0 0 0 0 0 0 0 0 0 0 0 0 0 0 0 0 0 0 0 0 0 0 0 0 0 0 0 0 0 0 0
0 0 0 0 0 0 0 0 0 0 0 0 0 0 0 0 0 0 0 0 0 0 0 0 0 0 0 0 0 0 0 0 0 0 0 0 0 0 0 0 0 0 0
0 0 0 0 0 0 0 0 0 0 0 0 0 0 0 0 0 0 0 0 0 0 0 0 0 0 0 0 0 0 0 0 0 0 0 0 0 0 0 0 0 0 0
0 0 0 0 0 0 0 0 0 0 0 0 0 0 0 0 0 0 0 0 0 0 0 0 0 0 0 0 0 0 0 0 0 0 0 0 0 0 0 0 0 0 0
0 0 0 0 0 0 0 0 0 0 0 0 0 0 0 0 0 1 1 1 0 0 0 0 0 0 0 0 0 0 0 0 0 0 0 0 0 0 0 0 0 0 0
Wind_Speed
4 5 10 12 13 13 13 13 12 12 12 13 13 13 13 14 14 14 14 14 15 15 15 15 15 15 15 16 16 16 15 15 15 14 14 15 15 15 14 14 12 8 15
7 6 10 11 13 13 13 13 12 12 12 12 13 13 13 14 14 14 14 14 14 14 14 15 14 14 14 13 14 13 13 13 12 12 12 11 12 13 14 13 13 9 14
9 7 9 11 13 13 12 12 11 11 12 12 12 12 13 13 13 13 13 13 13 13 13 13 13 13 12 12 12 12 12 11 10 10 9 5 7 12 13 13 13 13 13
10 8 9 11 12 13 12 12 11 11 11 11 11 12 12 12 13 13 12 12 12 12 12 12 12 11 11 11 11 11 11 10 9 8 5 4 4 10 12 12 12 12 12
9 7 9 11 12 13 12 12 11 11 11 11 11 11 11 12 12 12 12 11 11 11 12 11 11 10 9 9 9 10 10 10 9 7 4 4 4 9 11 11 11 11 10
8 8 9 12 12 13 12 12 11 11 11 11 11 11 11 11 12 11 11 11 11 11 10 10 10 9 8 8 8 9 9 9 8 4 4 3 3 7 9 9 9 9 8
8 7 9 11 11 12 12 12 11 11 11 10 10 10 10 10 11 11 11 10 10 10 10 9 8 7 6 6 6 8 8 7 5 3 3 3 3 7 7 8 7 7 8
10 8 8 11 11 11 11 11 11 11 11 10 10 10 10 10 10 10 10 10 9 9 9 8 7 6 4 3 4 6 6 5 4 3 2 2 2 5 6 7 7 7 6
9 8 6 7 8 10 10 10 10 10 10 9 10 10 8 8 8 8 8 9 9 8 8 7 6 5 3 1 3 5 5 5 3 1 1 1 2 4 5 6 5 5 5
7 8 7 6 6 6 7 10 10 10 9 9 9 9 8 7 7 7 6 7 8 8 8 7 6 4 2 1 2 4 4 3 2 1 1 0 1 2 3 4 4 4 3
7 7 7 7 6 6 6 8 9 10 10 9 8 9 8 4 4 4 5 6 7 8 8 7 6 4 3 2 3 4 3 1 0 1 1 2 2 2 2 3 3 3 3
10 9 8 8 8 7 6 5 4 5 6 6 5 6 4 4 3 4 6 7 7 7 8 8 7 5 3 2 3 4 1 1 1 2 2 4 3 3 4 4 4 4 3
9 9 9 9 9 8 5 5 4 3 4 5 6 6 5 4 3 3 2 3 4 5 3 4 4 2 3 2 3 3 3 2 2 2 3 6 5 5 5 6 6 5 5
8 9 9 9 9 9 7 6 6 5 4 5 6 7 5 3 4 4 3 4 3 2 3 3 2 4 4 5 5 4 4 3 2 2 4 7 7 7 7 8 8 8 8
10 10 10 10 10 9 8 7 7 7 6 6 6 7 7 5 5 5 4 4 4 3 4 4 4 5 5 5 5 5 5 5 4 4 3 8 9 9 10 10 10 10 10
13 12 10 10 10 10 9 8 7 7 7 7 7 8 9 7 6 6 5 5 5 5 5 5 5 5 5 4 5 6 6 5 5 5 4 6 10 11 12 12 12 12 12
12 12 12 11 10 11 10 10 7 7 7 7 7 8 9 8 8 7 6 6 6 5 6 5 5 4 4 5 6 6 5 6 5 6 6 5 5 10 13 14 14 14 14
11 11 13 11 11 12 10 9 7 7 8 7 7 7 10 10 9 7 6 6 6 5 5 5 5 4 5 5 4 5 5 5 7 7 6 6 5 5 9 15 15 16 16
13 13 13 13 13 13 11 8 7 7 8 7 7 7 9 10 10 8 7 6 6 5 5 5 5 4 5 5 5 5 5 5 6 7 8 8 7 7 6 10 14 15 17
12 13 13 13 13 11 8 6 5 7 7 7 8 8 9 9 10 9 7 7 7 6 6 6 6 5 5 4 4 5 5 6 6 7 9 8 7 8 8 7 7 9 15
10 11 13 13 13 10 8 9 9 10 9 7 8 9 10 10 11 10 8 8 8 8 9 8 6 7 6 3 3 4 5 7 9 8 8 7 8 8 7 8 6 6 6
11 12 13 14 13 13 11 10 7 6 6 7 6 8 10 11 11 10 11 9 9 8 9 9 8 5 5 5 4 2 4 5 5 8 7 7 8 6 7 8 7 7 6
11 13 12 14 14 13 12 6 4 3 3 5 8 10 12 13 12 11 12 11 10 10 10 11 10 10 8 6 6 5 4 6 4 3 5 6 7 6 6 6 8 8 8
12 11 12 12 12 12 11 9 11 11 12 13 10 8 9 11 12 12 12 12 11 10 11 11 11 10 9 8 6 7 6 4 3 4 3 3 5 6 7 6 7 8 8
9 9 10 10 11 11 11 13 13 13 12 7 6 8 9 9 12 12 13 12 13 12 13 11 11 12 10 10 8 5 8 7 7 5 7 4 3 5 6 7 6 6 7
6 6 7 8 9 10 12 12 14 14 12 9 9 10 10 9 9 13 13 13 13 12 13 13 12 13 12 12 11 8 7 6 7 8 11 8 6 5 6 6 7 7 7
Wind_Direction
148 157 143 139 133 127 123 118 115 113 109 107 104 102 99 98 97 93 92 90 89 87 85 84 84 83 82 81 79 75 71 67 65 65 67 71 74 74 71 68 64 59 66
149 151 142 140 136 130 126 123 121 118 115 113 109 107 105 103 100 98 96 94 93 92 90 88 88 86 85 84 81 75 70 66 65 65 67 66 72 72 68 65 67 67 68
139 143 140 138 136 132 130 127 125 122 119 117 115 113 111 109 106 105 103 101 99 98 96 95 93 90 87 85 79 70 67 65 69 71 66 45 59 71 69 65 64 65 68
139 142 140 137 138 137 135 132 130 127 124 122 119 118 117 116 113 111 109 107 106 105 103 101 99 95 91 84 74 66 62 65 75 75 60 43 46 71 72 68 67 66 66
137 138 142 141 142 141 140 138 136 134 131 129 127 124 121 120 118 116 114 113 110 108 107 106 104 101 93 83 71 62 59 67 78 75 64 47 38 75 76 72 69 69 68
137 140 148 147 147 147 146 144 143 141 139 137 136 132 128 125 124 123 120 117 115 114 113 111 109 105 94 81 67 59 59 72 75 72 64 48 35 80 82 78 76 76 73
140 146 154 152 152 152 152 151 150 149 146 145 143 138 135 133 132 131 129 126 123 122 120 118 116 112 99 78 62 55 58 69 81 81 69 47 58 87 87 84 81 82 78
147 150 156 157 156 156 156 156 155 154 153 152 150 147 146 143 142 141 139 138 135 133 132 129 127 123 109 77 52 44 44 53 82 86 72 36 62 96 99 94 87 84 82
148 150 154 159 160 161 160 160 159 158 158 158 156 152 150 149 148 147 147 149 149 145 143 142 142 143 139 80 30 22 28 49 88 122 111 24 57 95 102 102 96 90 91
154 158 161 165 163 163 164 166 164 163 161 159 155 153 154 154 152 152 152 160 160 158 157 157 161 170 185 268 337 354 16 45 86 113 138 223 86 108 116 118 116 111 111
169 172 171 172 172 169 169 173 169 168 168 162 160 162 158 155 156 161 170 170 170 168 170 173 181 191 213 274 301 321 352 14 150 193 201 210 180 167 158 156 163 156 157
185 185 181 180 179 176 178 169 171 173 171 169 168 169 167 169 177 179 187 184 180 178 183 189 197 205 219 277 297 306 306 285 222 220 223 216 208 213 206 204 204 199 202
188 189 188 186 184 182 179 173 177 175 176 179 179 180 178 178 185 185 182 189 187 185 188 203 208 215 228 245 262 268 264 257 224 228 231 222 221 228 231 225 221 221 224
195 199 195 190 188 188 183 182 183 183 186 190 192 189 181 183 188 187 188 189 189 189 195 205 215 225 234 241 243 247 248 231 220 220 232 228 227 235 244 241 232 231 232
205 206 200 193 191 189 186 189 189 192 194 196 195 197 190 188 192 192 196 195 197 197 199 207 219 230 237 242 239 234 236 232 226 219 230 232 232 238 246 248 243 239 238
211 210 203 199 196 189 190 194 193 195 195 196 200 201 196 195 193 193 198 200 204 203 204 207 214 224 233 235 241 237 234 234 233 228 227 235 237 239 245 247 249 248 248
212 208 205 203 198 196 196 197 196 195 194 198 201 202 201 199 197 196 200 204 207 205 206 211 220 225 233 236 241 241 238 235 237 235 232 228 235 240 242 246 250 253 253
209 207 208 204 201 203 202 199 199 197 197 201 200 201 204 203 199 199 205 209 203 198 201 208 212 220 230 232 237 241 238 238 239 238 235 231 228 234 239 243 246 251 254
210 207 205 203 203 204 204 202 200 199 203 204 202 204 207 207 203 202 209 210 199 203 206 211 211 209 222 231 237 242 242 240 241 241 240 236 230 228 229 240 241 245 249
213 209 206 204 205 201 198 199 204 210 212 210 209 210 206 208 207 207 211 207 200 207 213 212 216 215 219 223 241 252 248 245 243 241 242 240 234 231 228 231 236 242 244
214 210 208 205 204 195 194 201 208 217 216 215 215 212 210 210 209 211 214 209 207 215 218 213 212 219 227 202 234 274 270 247 243 241 236 236 238 235 229 228 228 229 240
214 212 210 209 204 201 205 205 206 207 214 217 215 216 215 214 213 214 216 215 212 217 219 215 210 216 219 187 191 224 290 296 259 240 232 233 238 234 233 232 227 227 228
219 215 212 211 207 205 204 194 192 194 212 214 218 222 220 218 217 217 218 218 216 218 224 220 214 215 224 211 196 187 213 246 292 282 243 235 234 231 235 235 232 231 229
222 216 213 211 208 206 199 196 198 207 218 222 222 222 218 216 219 219 220 220 221 222 227 224 218 220 219 223 213 219 220 198 225 291 288 257 239 234 235 235 236 235 231
221 214 212 210 210 205 200 203 206 217 226 227 218 221 220 218 220 221 222 223 225 226 228 226 221 220 221 225 217 208 225 232 229 244 272 274 262 242 235 234 235 236 233
229 217 212 208 213 208 204 206 210 218 223 222 221 225 226 225 224 224 223 225 227 228 228 227 225 223 225 226 225 218 209 214 216 223 244 253 255 249 234 231 232 234 232